Location: Fornova de Taro
(44.7000°N, 10.1000°E)
Time: 02:15:27
(UTC+00:00)

CZ-2D R/B - Pass Details

Date: 26 May 2022
Orbit: 791 x 845 km, 98.7° (Epoch: 26 June)

Event Time Altitude Azimuth Distance (km) Brightness Sun altitude
Rises 02:33:07 0° 0° (N) 3,381 6.1 -10.4°
Reaches altitude 10° 02:36:12 10° 342° (NNW) 2,432 5.0 -10.0°
Maximum altitude 02:39:40 18° 302° (WNW) 1,923 3.9 -9.6°
Drops below altitude 10° 02:43:06 10° 261° (W) 2,399 4.1 -9.1°
Enters shadow 02:43:48 - 256° (WSW) 2,586 4.2 -9.0°
